TimeCST,TemperatureF,Dew PointF,Humidity,Sea Level PressureIn,VisibilityMPH,Wind Direction,Wind SpeedMPH,Gust SpeedMPH,PrecipitationIn,Events,Conditions,WindDirDegrees,DateUTC
12:52 AM,55.0,41.0,59,29.88,10.0,ESE,9.2,-,N/A,,Clear,120,2012-11-09 06:52:00
1:52 AM,53.1,41.0,64,29.87,10.0,ESE,10.4,-,N/A,,Clear,120,2012-11-09 07:52:00
2:52 AM,54.0,41.0,62,29.86,10.0,SE,11.5,-,N/A,,Clear,130,2012-11-09 08:52:00
3:52 AM,53.1,41.0,64,29.86,10.0,SE,10.4,-,N/A,,Clear,130,2012-11-09 09:52:00
4:52 AM,52.0,41.0,66,29.86,10.0,SE,10.4,-,N/A,,Clear,130,2012-11-09 10:52:00
5:52 AM,50.0,41.0,71,29.86,10.0,SE,9.2,-,N/A,,Clear,130,2012-11-09 11:52:00
6:52 AM,50.0,42.1,74,29.86,10.0,SE,10.4,-,N/A,,Clear,130,2012-11-09 12:52:00
7:52 AM,52.0,43.0,71,29.86,10.0,SE,9.2,-,N/A,,Clear,130,2012-11-09 13:52:00
8:52 AM,57.9,46.9,67,29.86,10.0,SSE,9.2,-,N/A,,Clear,160,2012-11-09 14:52:00
9:52 AM,63.0,50.0,63,29.84,10.0,South,11.5,-,N/A,,Clear,180,2012-11-09 15:52:00
10:52 AM,70.0,54.0,57,29.83,10.0,South,15.0,25.3,N/A,,Clear,190,2012-11-09 16:52:00
11:52 AM,73.9,54.0,50,29.80,10.0,South,15.0,24.2,N/A,,Clear,190,2012-11-09 17:52:00
12:52 PM,73.0,55.0,53,29.78,10.0,South,10.4,19.6,N/A,,Clear,180,2012-11-09 18:52:00
1:52 PM,77.0,55.9,48,29.75,10.0,South,13.8,20.7,N/A,,Clear,190,2012-11-09 19:52:00
2:52 PM,75.9,57.0,52,29.73,10.0,South,20.7,26.5,N/A,,Clear,170,2012-11-09 20:52:00
3:52 PM,75.9,57.9,54,29.73,9.0,South,19.6,25.3,N/A,,Clear,180,2012-11-09 21:52:00
4:52 PM,73.9,57.0,55,29.73,10.0,South,13.8,21.9,N/A,,Clear,180,2012-11-09 22:52:00
5:52 PM,72.0,57.0,59,29.75,10.0,South,13.8,-,N/A,,Clear,170,2012-11-09 23:52:00
6:52 PM,70.0,57.9,65,29.75,10.0,South,21.9,28.8,N/A,,Clear,180,2012-11-10 00:52:00
7:52 PM,69.1,57.9,68,29.76,10.0,South,19.6,25.3,N/A,,Clear,180,2012-11-10 01:52:00
8:52 PM,68.0,57.9,70,29.77,10.0,South,16.1,-,N/A,,Clear,180,2012-11-10 02:52:00
9:52 PM,68.0,57.9,70,29.76,10.0,South,13.8,23.0,N/A,,Clear,170,2012-11-10 03:52:00
10:52 PM,68.0,57.0,68,29.76,10.0,South,13.8,21.9,N/A,,Clear,180,2012-11-10 04:52:00
11:52 PM,69.1,57.0,65,29.75,10.0,South,19.6,28.8,N/A,,Clear,190,2012-11-10 05:52:00